Location: Carri�res
(48.9069°N, 2.1792°E)
Time: 13:55:32
(UTC+00:00)

Cosmos 1726 Rocket - Pass Details

Date: 17 January 2021
Orbit: 604 x 628 km, 82.5° (Epoch: 25 February)

Event Time Altitude Azimuth Distance (km) Brightness Sun altitude
Rises 18:24:57 0° 346° (NNW) 2,878 7.0 -19.1°
Reaches altitude 10° 18:27:11 10° 343° (NNW) 1,972 6.2 -19.5°
Maximum altitude 18:31:28 58° 265° (W) 718 4.1 -20.2°
Drops below altitude 10° 18:35:45 10° 186° (S) 1,970 6.3 -20.9°
Sets 18:37:59 0° 183° (S) 2,874 7.1 -21.2°
